RUK9ZY EGAA-EGSS

Flight info

Callsign RUK9ZY
Flight time N/A
Altitude 33000
Route LISBO DCT RINGA DCT BABGU DCT ETIGA DCT INKOB Q39 NOMSU UQ4 LISTO
Aircraft B738/M-SDE2E3FGHIRWXY/LB1

Departure

Time 2026-05-06 10:06
Airport Belfast International Airport (EGAA)

Arrival

Time N/A
Airport London Stansted Airport (EGSS)
Time Latitude Longitude Altitude Speed Heading
2026-05-06 09:33 54.66111 -6.21348 234 ft 0 kts 245°
2026-05-06 09:37 54.66110 -6.21351 274 ft 0 kts 245°
2026-05-06 09:49 54.66110 -6.21350 271 ft 2 kts 245°
2026-05-06 09:49 54.66121 -6.21311 271 ft 4 kts 245°
2026-05-06 09:49 54.66130 -6.21281 271 ft 4 kts 204°
2026-05-06 09:49 54.66152 -6.21284 271 ft 4 kts 156°
2026-05-06 09:50 54.66156 -6.21286 271 ft 4 kts 155°
2026-05-06 09:50 54.66132 -6.21267 271 ft 4 kts 155°
2026-05-06 09:50 54.66127 -6.21263 271 ft 1 kts 155°
2026-05-06 09:59 54.66116 -6.21253 271 ft 4 kts 154°
2026-05-06 09:59 54.66082 -6.21224 271 ft 6 kts 158°
2026-05-06 10:00 54.66043 -6.21215 271 ft 6 kts 201°
2026-05-06 10:00 54.66017 -6.21268 271 ft 6 kts 239°
2026-05-06 10:00 54.65995 -6.21342 271 ft 8 kts 244°
2026-05-06 10:00 54.65968 -6.21442 271 ft 11 kts 245°
2026-05-06 10:01 54.65934 -6.21569 274 ft 13 kts 243°
2026-05-06 10:01 54.65894 -6.21721 271 ft 15 kts 245°
2026-05-06 10:01 54.65847 -6.21897 272 ft 17 kts 245°
2026-05-06 10:01 54.65794 -6.22097 275 ft 19 kts 250°
2026-05-06 10:02 54.65766 -6.22333 271 ft 21 kts 262°
2026-05-06 10:02 54.65747 -6.22591 271 ft 23 kts 262°
2026-05-06 10:02 54.65732 -6.22771 271 ft 23 kts 260°
2026-05-06 10:02 54.65663 -6.23011 271 ft 22 kts 234°
2026-05-06 10:03 54.65569 -6.23218 271 ft 22 kts 230°
2026-05-06 10:03 54.65466 -6.23365 271 ft 15 kts 201°
2026-05-06 10:03 54.65441 -6.23387 273 ft 0 kts 211°
2026-05-06 10:03 54.65440 -6.23388 273 ft 0 kts 208°
2026-05-06 10:04 54.65430 -6.23395 271 ft 3 kts 202°
2026-05-06 10:04 54.65404 -6.23410 271 ft 5 kts 195°
2026-05-06 10:04 54.65364 -6.23397 271 ft 7 kts 156°
2026-05-06 10:04 54.65314 -6.23372 271 ft 8 kts 179°
2026-05-06 10:05 54.65273 -6.23358 271 ft 1 kts 120°
2026-05-06 10:05 54.65275 -6.23347 275 ft 0 kts 70°
2026-05-06 10:05 54.65300 -6.23250 271 ft 36 kts 65°
2026-05-06 10:05 54.65516 -6.22452 271 ft 109 kts 65°
2026-05-06 10:06 54.65908 -6.20935 327 ft 163 kts 67°
2026-05-06 10:06 54.66425 -6.19053 912 ft 183 kts 68°
2026-05-06 10:06 54.66736 -6.16864 1602 ft 194 kts 93°
2026-05-06 10:06 54.66413 -6.14562 2091 ft 205 kts 117°
2026-05-06 10:07 54.65592 -6.12477 2582 ft 214 kts 133°
2026-05-06 10:07 54.64569 -6.10524 3019 ft 233 kts 131°
2026-05-06 10:07 54.63447 -6.08073 2336 ft 298 kts 128°
2026-05-06 10:07 54.62185 -6.05136 3245 ft 298 kts 127°
2026-05-06 10:08 54.60930 -6.02299 4481 ft 291 kts 129°
2026-05-06 10:08 54.59706 -5.99654 5922 ft 273 kts 130°
2026-05-06 10:08 54.58549 -5.97177 7204 ft 262 kts 130°
2026-05-06 10:08 54.57376 -5.94674 7823 ft 274 kts 130°
2026-05-06 10:09 54.56155 -5.92065 8462 ft 284 kts 130°
2026-05-06 10:09 54.54900 -5.89379 9191 ft 291 kts 130°
2026-05-06 10:09 54.53620 -5.86637 9933 ft 297 kts 129°
2026-05-06 10:09 54.52323 -5.83856 10486 ft 308 kts 130°
2026-05-06 10:10 54.50927 -5.80866 10694 ft 331 kts 129°
2026-05-06 10:10 54.49457 -5.77716 11173 ft 343 kts 130°
2026-05-06 10:10 54.47953 -5.74495 11916 ft 346 kts 130°
2026-05-06 10:10 54.46435 -5.71249 12663 ft 351 kts 130°
2026-05-06 10:11 54.44895 -5.67956 13435 ft 355 kts 130°
2026-05-06 10:11 54.43339 -5.64634 14181 ft 359 kts 130°
2026-05-06 10:11 54.41761 -5.61274 14893 ft 363 kts 130°
2026-05-06 10:11 54.40165 -5.57882 15615 ft 367 kts 130°
2026-05-06 10:12 54.38616 -5.54360 16334 ft 372 kts 127°
2026-05-06 10:12 54.37133 -5.50687 17060 ft 377 kts 126°
2026-05-06 10:12 54.35654 -5.46940 17770 ft 381 kts 126°
2026-05-06 10:12 54.34157 -5.43158 18442 ft 386 kts 126°
2026-05-06 10:13 54.32628 -5.39328 19060 ft 390 kts 126°
2026-05-06 10:13 54.31103 -5.35543 19683 ft 393 kts 126°
2026-05-06 10:13 54.29537 -5.31677 20319 ft 396 kts 126°
2026-05-06 10:13 54.27955 -5.27792 20935 ft 400 kts 127°
2026-05-06 10:14 54.26268 -5.23988 21539 ft 403 kts 130°
2026-05-06 10:14 54.24484 -5.20264 22144 ft 406 kts 131°
2026-05-06 10:14 54.22660 -5.16553 22732 ft 409 kts 132°
2026-05-06 10:14 54.20819 -5.12818 23310 ft 413 kts 132°
2026-05-06 10:15 54.18966 -5.09037 23832 ft 416 kts 131°
2026-05-06 10:15 54.17104 -5.05217 24313 ft 419 kts 131°
2026-05-06 10:15 54.15233 -5.01364 24806 ft 422 kts 131°
2026-05-06 10:15 54.13353 -4.97489 25278 ft 424 kts 131°
2026-05-06 10:16 54.11488 -4.93648 25733 ft 427 kts 131°
2026-05-06 10:16 54.09584 -4.89731 26184 ft 430 kts 131°
2026-05-06 10:16 54.07666 -4.85790 26628 ft 433 kts 131°
2026-05-06 10:16 54.05736 -4.81836 27064 ft 435 kts 132°
2026-05-06 10:17 54.03796 -4.77855 27499 ft 438 kts 131°
2026-05-06 10:17 54.01911 -4.73750 27923 ft 441 kts 129°
2026-05-06 10:17 54.00067 -4.69564 28333 ft 444 kts 129°